Dewpoint
10 10 7 4 0 -0 0 -4 -12 -14 -14 -12 -13 -16 -18 -19 -20 -23 -25 -27 -28 -29 -30 -31 -32 -30 -25 -0 -2 -4 -8 -15 -12 -9 -1 -3 -7 -10 -10 -12 -11 -10 -11 -10 -9 -9 -9
10 10 9 8 4 1 -1 -5 -10 -10 -7 -10 -11 -12 -13 -18 -21 -23 -25 -27 -28 -29 -30 -30 -29 -25 -12 -3 -8 -8 -9 -8 -5 -2 -3 -5 -6 -7 -9 -9 -9 -11 -11 -11 -12 -11 -11
10 10 9 7 4 2 0 -4 -6 -6 -4 -6 -7 -11 -12 -19 -21 -24 -27 -30 -30 -30 -30 -28 -25 -15 1 -5 -8 -7 -8 -10 -11 -8 -4 -5 -6 -5 -5 -6 -7 -7 -6 -7 -8 -9 -9
10 9 6 5 4 2 1 -1 -3 -3 -3 -3 -5 -11 -14 -18 -24 -27 -30 -31 -32 -31 -30 -21 -11 -3 -0 -6 -5 -7 -7 -7 -7 -10 -9 -7 -6 -6 -5 -5 -5 -6 -8 -7 -10 -12 -12
9 9 6 4 3 3 2 1 -0 -1 -1 -4 -7 -10 -11 -18 -26 -29 -31 -31 -30 -26 -17 -11 0 4 -1 -2 -4 -3 -3 -5 -8 -9 -10 -10 -9 -8 -7 -4 -4 -6 -4 -6 -8 -12 -11
8 6 5 4 3 3 2 1 1 0 -3 -5 -7 -8 -12 -19 -27 -31 -30 -19 -10 -9 -2 3 2 3 -0 -5 -4 -3 -3 -4 -5 -6 -6 -7 -9 -8 -7 -6 -3 -5 -6 -7 -8 -11 -9
7 6 4 3 3 2 2 1 0 -2 -3 -5 -6 -7 -11 -21 -31 -26 -25 -0 3 5 4 1 -3 -1 -8 -10 -9 -10 -10 -4 -5 -6 -4 -6 -6 -5 -6 -7 -7 -6 -5 -5 -7 -10 -9
6 5 3 3 2 2 1 0 -1 -2 -3 -1 -4 -5 -11 -24 -28 -17 -7 -3 -5 -4 -7 -6 -10 -7 -5 -4 -5 -7 -11 -6 -6 -4 -6 -6 -4 -6 -8 -8 -8 -7 -7 -6 -8 -9 -7
5 4 3 2 1 1 1 -0 -1 0 1 -1 -4 -7 -16 -19 -22 -10 -5 -5 -6 -4 -3 -8 -6 -4 -3 -3 -4 -6 -10 -10 -6 -5 -4 -4 -6 -7 -4 -5 -5 -6 -6 -6 -6 -8 -7
3 2 2 1 1 1 0 1 1 -0 -2 -3 -8 -13 -18 -18 -9 -6 -2 -6 -4 -3 1 -7 -6 -4 -3 -3 -2 -5 -5 -8 -7 -6 -7 -6 -7 -7 -6 -5 -6 -3 -7 -7 -4 -3 0
1 1 1 1 1 1 0 0 -0 -1 -3 -7 -12 -16 -15 -12 -3 -3 -4 -6 -2 2 -0 -8 -4 -4 -8 -6 -8 -3 -5 -7 -7 -7 -6 -5 -7 -6 -4 -4 -8 -7 -7 -4 -3 -0 0
1 0 0 0 0 0 -0 -0 -2 -3 -4 -8 -13 -14 -9 -7 -6 -2 -6 -14 1 5 -2 -10 -6 -7 -15 -13 -10 -7 -6 -6 -6 -7 -7 -7 -9 -8 -8 -7 -6 -5 -3 -4 -2 -1 3
0 0 0 0 -0 -0 -1 -2 -1 -3 -6 -10 -14 -17 -14 -4 -1 -3 -19 1 4 0 -16 -11 -9 -11 -15 -17 -21 -18 -11 -5 -4 -3 -3 -5 -5 -7 -7 -3 -5 -3 -1 0 -0 -1 2
0 -0 -0 -0 -1 -1 -1 -1 -3 -5 -8 -10 -16 -16 -9 -2 -8 -15 -1 -0 -1 -18 -13 -12 -14 -15 -15 -19 -21 -19 -14 -12 -13 -13 -8 -7 -6 -8 -5 -2 -3 -3 -1 2 1 3 1
-0 -1 -1 -1 -1 -2 -3 -2 -3 -4 -10 -14 -15 -8 -0 -1 -18 -10 -0 -0 -5 -8 -11 -11 -16 -18 -18 -19 -14 -10 -10 -13 -15 -15 -10 -3 -5 -6 -6 -6 -5 -3 -2 -4 1 -0 1
-1 -1 -2 -1 -2 -2 -2 -3 -4 -9 -12 -11 -2 -2 -3 -18 -19 -1 -1 -5 -10 -12 -14 -14 -13 -19 -14 -13 -12 -12 -12 -14 -7 -4 -2 -1 2 -7 -6 -5 -4 -4 -4 4 7 5 3
-2 -2 -2 -2 -2 -2 -3 -4 -4 -10 -11 -10 -3 -3 -3 -21 -3 0 0 -8 -13 -13 -12 -12 -13 -13 -13 -12 -13 -13 -15 -16 -15 -5 -6 -3 1 2 -1 1 -0 -2 1 -0 2 4 6
-2 -3 -5 -7 -3 -4 -5 -8 -8 -9 -12 -5 -3 -1 -6 -6 -1 -6 -7 -10 -12 -12 -10 -11 -11 -11 -11 -11 -10 -10 -11 -12 -14 -13 -12 -4 4 4 -0 -5 -4 -4 -3 0 5 3 4
-3 -6 -8 -4 -4 -4 -4 -7 -7 -10 -4 -3 -4 -6 -17 -1 2 -5 -9 -11 -10 -10 -9 -9 -9 -10 -9 -8 -8 -10 -10 -11 -11 -12 -7 -4 0 2 -1 -4 -6 -2 -2 2 4 5 6
-6 -5 -7 -9 -4 -4 -5 -6 -8 -11 -7 -3 -4 -0 -6 -6 -7 -5 -7 -8 -8 -8 -8 -8 -8 -8 -7 -7 -9 -9 -9 -10 -8 -7 -3 -3 -3 -0 3 1 1 4 4 2 1 7 4
-4 -4 -7 -7 -5 -4 -5 -9 -10 -11 -7 -2 -3 -0 -4 -1 -6 -7 -7 -9 -8 -7 -8 -9 -5 -5 -5 -6 -8 -8 -9 -8 -9 -9 -8 -5 -2 -4 -2 -3 -3 0 5 2 3 6 4
-2 -3 -4 -5 -5 -6 -5 -11 -11 -11 -4 -1 -7 -3 -6 -6 -7 -7 -7 -9 -10 -9 -11 -7 -6 -8 -9 -8 -9 -5 -7 -7 -6 -8 -6 -1 -0 -4 -3 -4 -4 0 -1 2 3 6 5
-2 -2 -2 -4 -5 -10 -8 -13 -11 -10 -2 -3 -4 -4 -3 -7 -7 -8 -7 -9 -10 -10 -10 -11 -11 -9 -9 -9 -10 -8 -8 -8 -7 -6 -3 -2 1 1 -1 -5 -2 3 -2 -3 -1 2 -1
-3 -2 -3 -5 -5 -10 -11 -10 -10 -5 -3 -1 -4 -5 -5 -4 -9 -10 -10 -11 -11 -11 -10 -10 -11 -9 -10 -8 -8 -8 -8 -8 -8 -7 -6 -2 -1 -0 1 -0 2 -3 -6 -6 -5 2 3
-4 -7 -5 -4 -4 -7 -9 -9 -8 -8 -4 -2 -6 -4 -6 -2 -11 -11 -11 -11 -11 -12 -10 -10 -11 -10 -8 -7 -4 -5 -5 -7 -7 -6 -6 -5 -2 2 2 2 2 -4 -5 -4 -3 5 1
-6 -7 -6 -5 -4 -6 -9 -9 -7 -8 -5 -3 -3 -4 -5 -1 -10 -11 -12 -11 -9 -9 -8 -9 -9 -7 -7 -3 -2 -2 -2 -4 -3 1 -7 -7 -4 1 0 3 5 6 0 -4 -5 6 1
-7 -7 -6 -5 -7 -6 -9 -9 -8 -7 -7 -3 -2 -4 -4 -1 -8 -9 -5 -3 -8 -7 -7 -7 -7 -8 -5 -2 -1 1 -1 -4 -1 -1 -5 -3 -0 1 2 3 5 1 -0 -4 -1 4 0
-8 -7 -5 -4 -8 -5 -8 -9 -9 -9 -10 -4 -2 -3 -3 -4 -5 -7 -7 -8 -7 -7 -5 -6 -6 -3 -5 -2 -0 -2 -0 -0 2 -2 -4 -2 0 1 1 5 4 -1 -1 2 2 1 -1
-7 -6 -4 -5 -8 -5 -3 -7 -9 -12 -10 -4 -2 -4 -4 -4 -3 -4 -4 -4 -5 -6 -6 -7 -6 -6 -3 -1 -3 -2 -1 2 2 2 -1 3 2 4 2 2 1 -1 -1 -1 -1 -1 -1
Wind_Speed
50 48 45 43 39 35 31 28 25 24 23 22 20 19 18 17 16 17 18 17 18 19 17 17 17 17 14 9 15 12 15 14 6 6 10 12 14 17 17 19 24 24 24 31 29 31 33
51 51 50 48 42 36 31 26 26 24 22 21 19 18 17 17 17 18 18 18 19 19 18 17 17 16 10 13 7 5 9 7 8 8 10 13 14 15 18 19 18 23 24 24 24 26 29
52 52 52 45 43 38 33 25 25 24 20 18 17 16 17 17 18 18 18 18 18 19 18 17 15 12 11 26 9 8 10 10 11 13 15 13 13 15 12 13 19 23 21 20 22 26 26
56 57 48 43 38 37 34 25 24 21 19 16 15 16 16 17 18 18 17 17 18 18 17 13 10 6 10 6 9 11 12 14 15 14 14 15 13 14 17 18 22 19 19 18 18 23 26
63 60 49 44 37 34 27 26 23 19 16 15 15 14 15 17 17 15 14 15 16 14 11 6 2 8 9 6 8 4 7 12 12 14 13 11 10 15 16 14 15 15 18 21 23 24 20
62 56 48 41 34 28 26 24 22 19 17 15 13 14 15 16 13 11 10 9 9 9 3 1 7 7 11 6 3 5 5 7 7 6 9 11 8 11 14 14 15 15 17 18 19 14 14
61 51 42 36 28 28 27 23 20 16 14 14 15 14 13 13 8 6 6 3 3 4 14 12 5 16 15 8 13 14 13 9 9 12 12 17 11 15 18 19 19 17 19 20 22 20 19
53 45 35 28 30 26 24 21 17 17 16 14 13 12 12 10 5 2 1 4 3 4 9 21 18 13 10 5 5 5 11 8 15 14 16 14 15 16 16 16 15 16 19 20 19 21 20
48 38 34 31 28 25 21 17 15 15 14 15 13 11 9 5 4 3 2 1 4 3 7 10 11 6 1 3 3 2 8 16 15 16 16 17 17 12 8 13 15 17 18 18 22 20 21
30 26 26 25 21 20 18 19 15 13 12 11 11 9 4 7 1 0 2 4 6 1 4 11 8 6 5 3 5 4 4 11 13 16 17 14 17 17 16 18 14 17 17 19 17 16 14
22 19 19 18 19 20 16 11 9 10 12 10 8 6 5 10 6 1 4 7 5 2 4 13 10 7 5 6 7 8 3 6 13 11 7 11 11 12 14 16 16 18 17 15 13 16 19
28 25 20 17 18 16 14 10 9 11 12 9 6 4 7 3 3 4 7 3 2 3 5 5 8 6 7 17 9 7 6 7 9 12 14 18 19 15 13 13 15 9 13 16 15 14 13
22 20 21 21 15 11 8 9 12 12 10 8 5 5 8 7 2 9 1 2 4 5 8 8 3 2 3 7 13 10 10 13 8 10 13 17 19 19 17 11 12 10 11 8 11 10 13
17 17 18 15 13 12 15 13 9 10 8 5 4 6 3 2 6 3 4 5 6 3 9 5 2 7 12 14 15 10 16 13 16 17 16 16 16 16 18 14 10 14 13 8 9 7 11
16 13 12 11 11 6 5 8 6 6 5 3 5 3 2 6 3 5 3 5 6 9 5 6 9 12 13 12 3 4 12 15 16 19 16 11 17 8 3 9 10 10 12 14 18 17 14
11 10 9 9 8 8 6 5 5 4 3 6 5 1 3 4 2 5 4 4 2 5 6 4 4 4 6 11 10 7 11 11 16 18 19 11 14 19 15 13 14 15 7 5 3 4 8
8 8 11 9 9 8 6 5 5 3 3 7 3 2 4 3 2 5 4 2 3 6 5 4 4 7 8 9 10 11 8 17 12 12 14 13 8 13 22 10 15 13 13 12 5 8 3
10 8 6 8 10 5 2 3 7 5 6 7 2 2 2 4 4 4 2 3 2 3 1 1 3 3 4 6 9 10 13 12 20 23 15 8 4 13 20 20 21 20 15 16 8 7 6
7 5 8 9 9 6 5 6 7 7 7 4 4 4 1 2 2 4 3 4 2 1 2 1 2 1 7 6 5 6 10 11 15 15 11 1 5 8 15 16 16 8 11 20 18 3 9
11 8 7 11 9 6 5 5 7 7 8 1 2 1 3 4 1 3 4 4 5 2 2 2 4 3 4 5 9 8 15 6 9 16 3 7 9 11 14 10 14 14 17 17 12 6 5
13 9 10 11 7 5 4 6 7 9 10 3 2 3 1 2 3 5 4 2 3 1 4 7 2 4 6 7 11 14 12 13 14 16 13 11 16 17 21 24 16 16 22 10 17 15 8
13 11 10 7 3 5 4 7 8 10 8 4 1 4 3 6 6 5 2 5 3 5 2 4 2 9 11 10 13 15 14 14 16 13 11 10 12 17 20 20 19 25 20 6 9 10 7
12 13 11 6 2 1 7 8 9 10 6 1 1 4 5 8 5 5 6 4 2 1 5 9 8 9 11 14 20 22 23 26 22 19 16 11 4 8 14 14 14 12 18 10 11 19 10
14 13 11 8 5 4 7 9 11 10 7 3 1 1 2 2 6 5 3 0 4 5 6 10 10 9 13 17 23 25 29 29 26 21 19 15 11 7 7 9 7 12 12 13 6 17 12
16 12 9 10 8 9 9 10 11 11 6 8 2 5 2 3 3 5 3 5 7 7 9 11 10 10 14 19 10 10 9 14 16 17 16 16 10 5 4 5 15 17 7 8 6 9 16
15 10 9 10 11 12 12 12 10 10 8 7 3 3 3 3 2 5 1 3 6 4 3 7 3 5 13 4 5 7 10 15 5 8 16 15 10 3 3 2 4 7 17 5 3 6 14
15 11 9 11 13 14 12 11 9 8 9 6 3 2 2 2 3 2 4 3 4 3 5 5 11 10 3 3 6 6 5 11 3 4 13 8 4 9 9 6 3 17 18 8 1 5 14
13 12 14 15 16 15 13 11 8 7 8 6 3 2 2 1 2 1 2 2 2 5 4 8 6 7 5 4 4 4 3 4 7 1 9 7 6 5 7 6 5 29 13 7 6 15 12
14 16 18 16 18 15 14 11 8 8 10 9 3 3 3 2 4 7 6 8 8 8 8 6 6 6 6 4 5 3 6 4 8 3 7 2 4 3 6 3 8 17 15 12 12 13 13
Wind_Direction
263 262 259 256 254 251 248 251 249 251 253 259 263 267 271 275 280 284 288 292 293 293 293 292 293 299 310 265 259 267 281 290 259 231 225 232 227 231 244 252 256 261 264 263 266 271 270
263 261 260 258 250 245 242 238 244 244 248 254 260 265 270 275 278 281 286 287 285 286 288 288 289 292 291 256 256 276 286 256 245 232 240 239 244 242 260 266 259 268 280 281 276 284 280
263 263 253 243 242 236 236 230 237 241 247 249 255 262 273 274 277 281 288 285 284 283 286 289 286 281 254 248 247 268 268 251 248 241 250 247 252 266 270 269 262 276 281 281 278 272 269
263 258 231 224 224 229 228 224 232 238 240 246 255 266 272 275 277 285 286 284 281 282 285 287 281 249 256 269 255 260 247 252 256 243 246 255 266 267 269 277 282 272 270 272 267 264 255
259 249 223 220 215 222 221 216 224 230 238 252 261 267 275 276 279 285 280 281 284 283 283 277 253 204 270 275 260 269 246 240 241 234 236 248 253 256 259 248 261 249 260 264 275 282 289
239 225 214 208 213 216 205 213 214 222 237 249 255 268 274 276 281 276 274 294 299 278 318 294 260 245 259 244 236 252 234 231 238 229 229 230 241 237 231 244 243 258 263 270 279 267 298
219 213 203 206 209 202 201 204 213 227 240 248 257 264 273 276 270 265 276 300 271 219 212 220 245 242 288 277 274 257 248 230 244 245 223 208 223 232 232 231 246 269 280 286 288 296 304
206 197 196 193 194 199 202 207 214 226 231 242 256 270 285 265 230 193 108 291 36 308 297 241 253 250 262 281 292 244 213 214 227 235 224 239 221 249 255 263 262 267 275 276 280 284 271
196 186 182 186 197 207 203 195 205 219 228 250 270 276 274 260 182 160 62 29 323 327 254 201 210 227 207 206 311 18 209 222 254 229 247 246 248 224 263 267 269 259 263 276 281 282 282
162 168 184 195 187 191 188 195 197 227 247 266 275 264 226 155 122 168 246 302 312 318 263 163 193 199 197 213 257 203 231 236 232 250 265 266 263 260 270 266 251 268 274 275 290 284 279
160 171 168 175 180 185 193 203 220 241 248 253 261 239 167 171 163 326 258 294 318 20 263 161 135 142 188 225 318 168 207 226 259 252 214 253 272 245 254 262 274 275 284 288 283 283 286
160 167 169 178 185 186 185 199 230 238 251 247 235 205 137 128 150 258 283 320 8 212 232 134 140 177 242 210 244 150 206 225 270 264 264 258 260 265 247 276 277 265 281 269 270 262 269
151 156 168 173 172 171 194 216 235 249 245 230 210 195 194 169 203 250 183 340 244 248 167 136 143 180 275 274 280 252 246 218 235 243 253 254 233 237 237 241 253 245 267 260 267 253 247
168 174 173 171 175 188 196 206 229 227 223 234 192 179 166 187 243 160 90 225 252 346 74 46 330 295 273 280 273 281 271 257 271 257 266 267 275 249 190 217 243 221 232 242 273 285 310
154 160 165 172 182 191 180 171 187 232 232 197 153 112 115 253 241 128 243 229 4 7 11 1 314 260 260 240 177 310 284 283 283 285 289 310 271 49 159 216 231 243 242 240 265 279 279
155 147 150 148 160 175 180 188 203 231 209 150 109 211 220 259 186 121 235 271 64 40 354 347 296 318 306 322 335 328 309 324 346 9 355 322 307 281 218 224 228 242 255 247 322 266 267
172 179 172 160 187 183 187 203 220 210 165 155 130 210 251 198 153 219 232 109 98 67 9 339 336 311 320 311 305 302 293 306 323 343 335 327 310 282 291 198 219 214 230 245 243 251 278
153 128 159 194 203 206 201 183 192 182 137 122 275 235 270 206 222 199 214 32 14 66 74 39 298 295 286 329 304 301 295 293 318 317 303 358 303 286 271 267 206 248 235 229 228 250 284
158 178 176 171 181 185 167 162 168 158 138 141 257 85 177 80 200 184 97 111 28 133 38 20 293 336 339 312 311 313 316 328 327 310 323 335 278 293 270 261 251 223 240 233 216 266 233
160 149 175 180 182 177 177 183 180 159 154 115 324 166 166 221 7 55 150 154 136 62 53 324 322 289 317 336 308 322 308 322 320 296 14 333 261 258 276 294 312 298 296 294 298 212 255
169 160 135 151 176 189 177 185 183 152 151 56 56 269 353 170 141 110 152 233 159 251 198 245 79 244 264 297 313 296 322 324 318 310 286 216 262 271 270 288 290 276 279 289 303 282 228
197 186 170 159 168 203 188 180 165 140 129 43 65 296 211 113 98 161 85 221 246 134 267 108 264 286 289 298 295 312 311 300 306 299 304 344 271 265 269 277 281 306 249 221 302 298 351
196 201 196 174 160 165 188 172 151 145 117 54 277 299 295 121 170 211 180 195 243 311 274 264 281 313 313 302 302 306 298 288 275 278 281 275 275 310 264 279 299 283 247 239 218 214 239
192 194 205 212 212 143 165 165 148 145 110 31 277 352 353 196 228 182 108 211 253 269 297 309 307 290 295 319 309 292 273 267 260 254 245 250 255 276 290 303 266 266 193 206 200 49 37
178 184 184 193 190 175 175 175 160 161 129 78 84 353 352 280 204 132 204 256 275 271 238 250 281 313 327 310 302 300 291 281 271 266 226 234 225 268 276 284 286 187 112 143 150 46 23
177 174 166 183 194 187 184 177 169 160 140 74 48 41 356 333 65 40 119 239 277 321 274 288 297 319 295 305 289 283 304 310 288 305 200 202 210 203 293 278 273 13 341 25 103 85 27
179 181 180 183 184 187 182 181 178 167 163 107 43 115 30 19 75 161 14 39 14 334 296 351 339 314 8 297 287 281 297 325 273 263 174 159 172 217 249 250 241 346 330 296 31 39 38
189 196 193 191 190 189 188 189 193 192 181 150 121 149 53 264 338 358 318 302 276 258 320 329 327 10 329 310 318 10 308 316 290 226 164 180 216 212 219 238 82 355 17 58 349 50 45
197 190 187 192 195 197 191 187 200 194 178 173 121 150 216 274 271 314 273 258 264 286 312 316 307 328 21 329 3 326 290 262 2 16 5 67 352 4 36 45 34 47 60 48 51 57 50
Height
1473 1474 1475 1476 1478 1480 1481 1483 1483 1484 1484 1485 1485 1485 1484 1483 1482 1481 1480 1479 1478 1476 1475 1473 1471 1470 1469 1469 1459 1455 1456 1456 1455 1455 1457 1458 1456 1456 1453 1451 1452 1445 1439 1437 1436 1438 1437
1463 1464 1465 1466 1469 1473 1475 1476 1479 1479 1480 1480 1481 1480 1480 1479 1478 1477 1476 1475 1474 1473 1472 1470 1468 1467 1467 1466 1458 1454 1455 1456 1456 1456 1457 1456 1453 1451 1447 1445 1443 1443 1437 1434 1432 1433 1432
1452 1454 1454 1456 1459 1464 1467 1471 1473 1474 1476 1475 1476 1476 1476 1475 1475 1473 1472 1470 1469 1468 1467 1467 1466 1465 1464 1454 1455 1452 1453 1455 1456 1455 1455 1454 1452 1450 1448 1446 1445 1443 1441 1437 1434 1434 1431
1440 1443 1446 1449 1453 1458 1460 1464 1469 1471 1472 1472 1472 1471 1471 1471 1470 1470 1468 1467 1464 1464 1463 1465 1465 1464 1457 1452 1450 1449 1450 1451 1453 1453 1453 1454 1451 1450 1450 1449 1446 1444 1441 1441 1429 1425 1420
1433 1431 1438 1442 1446 1450 1456 1458 1463 1467 1469 1468 1468 1467 1467 1467 1465 1466 1465 1462 1461 1460 1460 1460 1464 1465 1453 1449 1448 1446 1447 1448 1449 1450 1450 1451 1451 1449 1450 1451 1449 1442 1442 1433 1422 1416 1411
1424 1424 1430 1434 1442 1447 1449 1455 1457 1461 1464 1465 1464 1463 1463 1463 1462 1463 1462 1460 1459 1458 1457 1459 1463 1467 1449 1447 1446 1446 1446 1447 1447 1446 1447 1449 1450 1447 1447 1445 1445 1435 1428 1420 1417 1412 1410
1412 1418 1425 1432 1437 1443 1447 1450 1454 1458 1460 1462 1461 1461 1460 1459 1460 1460 1460 1460 1461 1458 1456 1451 1452 1449 1446 1445 1443 1441 1443 1444 1445 1445 1443 1442 1445 1441 1435 1432 1431 1430 1432 1430 1420 1414 1417
1407 1413 1422 1429 1436 1442 1445 1448 1452 1455 1459 1461 1459 1457 1457 1456 1457 1459 1459 1459 1459 1459 1453 1447 1448 1446 1444 1443 1439 1436 1439 1443 1442 1441 1437 1438 1437 1429 1428 1425 1425 1426 1429 1426 1420 1416 1414
1402 1410 1419 1425 1434 1440 1443 1447 1451 1454 1454 1458 1456 1454 1453 1454 1454 1458 1459 1459 1457 1454 1456 1441 1442 1440 1441 1441 1437 1436 1439 1439 1438 1434 1432 1429 1422 1418 1425 1426 1426 1423 1426 1425 1421 1413 1408
1406 1412 1419 1426 1433 1438 1442 1447 1446 1451 1454 1452 1454 1453 1451 1452 1459 1457 1460 1457 1455 1455 1449 1435 1436 1437 1439 1440 1437 1437 1438 1439 1435 1433 1427 1424 1420 1418 1420 1422 1423 1426 1417 1414 1414 1414 1419
1408 1417 1422 1426 1434 1440 1441 1442 1445 1448 1450 1451 1450 1452 1450 1452 1456 1457 1458 1455 1456 1456 1439 1429 1431 1435 1434 1437 1434 1434 1437 1436 1432 1425 1429 1425 1420 1421 1423 1422 1419 1419 1414 1412 1414 1417 1414
1410 1417 1423 1427 1432 1438 1440 1442 1446 1447 1449 1447 1449 1451 1450 1452 1453 1455 1453 1454 1457 1449 1435 1427 1426 1430 1429 1428 1427 1429 1433 1434 1430 1426 1422 1418 1417 1415 1414 1415 1413 1415 1418 1414 1414 1414 1420
1412 1419 1425 1427 1431 1435 1441 1438 1443 1447 1446 1446 1447 1448 1450 1451 1453 1451 1451 1457 1451 1438 1417 1427 1426 1430 1429 1428 1425 1422 1422 1423 1425 1426 1417 1407 1407 1408 1410 1416 1414 1417 1420 1424 1420 1410 1405
1416 1420 1424 1427 1430 1434 1437 1438 1443 1444 1445 1445 1445 1448 1449 1452 1449 1448 1453 1455 1445 1416 1420 1430 1431 1431 1431 1427 1423 1421 1421 1419 1415 1413 1414 1412 1410 1395 1400 1410 1410 1411 1416 1421 1422 1413 1403
1419 1422 1425 1428 1432 1436 1438 1438 1440 1443 1445 1445 1446 1448 1448 1449 1449 1448 1455 1447 1434 1433 1436 1437 1434 1429 1422 1417 1425 1427 1424 1422 1417 1412 1412 1409 1404 1396 1398 1401 1407 1406 1410 1405 1412 1403 1406
1421 1424 1427 1430 1434 1435 1438 1441 1440 1443 1444 1445 1446 1449 1449 1448 1448 1450 1450 1438 1436 1444 1445 1441 1440 1432 1432 1427 1430 1429 1429 1418 1419 1419 1420 1413 1415 1397 1398 1402 1400 1402 1401 1417 1425 1420 1404
1422 1426 1428 1430 1434 1438 1439 1439 1440 1443 1445 1445 1448 1447 1448 1449 1449 1449 1444 1437 1442 1449 1449 1447 1443 1443 1441 1442 1440 1438 1435 1430 1428 1430 1432 1427 1424 1413 1402 1408 1401 1398 1401 1402 1408 1408 1410
1424 1427 1430 1432 1434 1436 1437 1438 1440 1445 1444 1447 1449 1445 1448 1448 1448 1442 1438 1442 1450 1448 1450 1449 1452 1449 1447 1446 1445 1442 1439 1436 1435 1433 1433 1434 1441 1426 1403 1388 1387 1388 1388 1393 1409 1404 1397
1426 1428 1430 1431 1434 1436 1438 1439 1441 1444 1445 1446 1447 1446 1449 1447 1445 1438 1445 1447 1448 1448 1450 1450 1450 1450 1449 1449 1449 1440 1439 1439 1440 1439 1438 1437 1433 1426 1405 1393 1384 1392 1387 1398 1395 1401 1404
1426 1428 1429 1431 1434 1436 1438 1439 1441 1445 1447 1448 1448 1450 1449 1446 1444 1442 1446 1446 1449 1455 1455 1456 1453 1454 1451 1448 1446 1444 1442 1440 1442 1442 1441 1445 1437 1437 1423 1408 1418 1412 1405 1395 1387 1400 1396
1426 1429 1431 1432 1435 1437 1439 1441 1443 1446 1448 1449 1450 1450 1446 1448 1445 1445 1449 1450 1449 1454 1456 1455 1457 1457 1455 1451 1448 1445 1441 1441 1440 1438 1437 1438 1437 1430 1424 1409 1410 1412 1414 1401 1400 1400 1393
1427 1429 1432 1434 1436 1437 1439 1441 1444 1446 1448 1450 1450 1451 1447 1445 1448 1448 1454 1451 1448 1450 1455 1453 1459 1455 1451 1450 1449 1448 1444 1443 1440 1437 1436 1439 1432 1425 1418 1412 1407 1403 1393 1398 1403 1402 1397
1427 1429 1432 1434 1436 1438 1441 1442 1444 1447 1449 1453 1454 1452 1449 1447 1450 1449 1449 1450 1453 1457 1457 1456 1455 1453 1453 1452 1450 1447 1446 1443 1441 1439 1437 1438 1442 1429 1416 1408 1405 1397 1380 1383 1387 1392 1383
1426 1429 1432 1434 1437 1438 1440 1443 1446 1449 1452 1453 1454 1453 1451 1448 1445 1448 1451 1454 1456 1457 1457 1455 1454 1454 1455 1453 1450 1444 1437 1431 1428 1425 1427 1429 1432 1431 1422 1415 1416 1380 1370 1371 1378 1389 1399
1425 1429 1431 1434 1437 1439 1442 1445 1448 1452 1453 1452 1455 1455 1453 1452 1445 1449 1455 1457 1457 1456 1456 1455 1454 1454 1454 1453 1446 1433 1423 1416 1409 1408 1412 1418 1423 1429 1422 1416 1405 1372 1370 1372 1375 1410 1406
1424 1428 1431 1433 1437 1440 1444 1447 1450 1452 1453 1453 1455 1456 1456 1455 1452 1452 1455 1456 1454 1451 1452 1453 1454 1454 1455 1452 1448 1438 1428 1417 1411 1408 1400 1407 1413 1429 1424 1427 1398 1397 1388 1380 1378 1405 1414
1424 1427 1431 1434 1437 1441 1444 1447 1450 1452 1454 1455 1457 1457 1458 1459 1456 1457 1458 1459 1457 1458 1455 1454 1455 1453 1452 1451 1447 1437 1427 1421 1416 1405 1401 1408 1419 1423 1422 1422 1402 1409 1399 1382 1386 1423 1422
1423 1427 1430 1434 1437 1441 1445 1447 1450 1453 1455 1457 1459 1460 1460 1461 1459 1459 1460 1459 1459 1460 1458 1458 1456 1457 1453 1450 1444 1441 1441 1435 1417 1402 1401 1409 1412 1408 1408 1401 1402 1415 1399 1406 1427 1426 1427
1422 1425 1429 1433 1437 1441 1444 1447 1450 1453 1455 1457 1459 1461 1461 1462 1461 1460 1460 1460 1461 1462 1462 1459 1459 1456 1459 1457 1451 1449 1442 1432 1426 1412 1408 1417 1415 1413 1421 1424 1429 1430 1430 1431 1429 1429 1430